Regional Weather Roundup
Issued by NWS

Home | Current Version | Previous Version | Graphics & Text | Print | Product List | Glossary On
Versions: 1 2 3 4 5 6 7 8 9 10 11 12 13 14 15 16 17 18 19 20 21 22 23 24 25 26 27 28 29 30 31 32 33 34 35 36 37 38 39 40 41 42 43 44 45 46 47 48 49 50
781
ASUS44 KMEG 272010
RWRTN
TENNESSEE HOURLY STATE WEATHER ROUNDUP
NATIONAL WEATHER SERVICE MEMPHIS TN
300 PM CDT THU JUL 27 2017

TNZ002-004-019-021-049-052-054-088>092-272100-
WEST TENNESSEE

CITY           SKY/WX    TMP DP  RH WIND       PRES   REMARKS
MEMPHIS INTL   CLOUDY    94  76  55 W10       29.95F HX 106
NWS MEMPHIS      N/A     92 N/A N/A MISG        N/A
JACKSON        CLOUDY    93  76  57 W13       29.94F HX 105
SOMERVILLE       N/A     91  75  59 W3        29.94F HX 102
COVINGTON      SUNNY     91  75  59 SW8G16    29.92F HX 102
UNION CITY     SUNNY     86  77  74 W5        29.91F HX  97
BOLIVAR        MOSUNNY   91  73  55 VRB6G18   29.94F HX 100
PARIS          PTSUNNY   84  72  65 N7G13     29.93F
HUNTINGDON     MOSUNNY   93  75  55 SW9       29.92F HX 104
LEXINGTON      MOSUNNY   90  75  62 W8        29.95F HX 100
SAVANNAH       PTSUNNY   84  75  74 N14G23    29.96S HAZE    HX  92
$$

TNZ008-025-027-028-033-062-065-066-272100-
NORTH MIDDLE TENNESSEE

CITY           SKY/WX    TMP DP  RH WIND       PRES   REMARKS
NASHVILLE      CLOUDY    91  71  51 SW6       29.95F HX  97
PORTLAND       MOSUNNY   90  72  55 SW9G21    29.93F HX  96
CLARKSVILLE    PTSUNNY   89  71  55 SW9       29.92F HX  95
SMYRNA         CLOUDY    92  74  55 SW7       29.95F HX 101
COOKEVILLE     MOSUNNY   90  72  55 VRB7      29.97F HX  96
GALLATIN       MOSUNNY   91  72  52 VRB7      29.95F HX  98
CROSSVILLE     PTSUNNY   85  70  60 W13       30.04F
$$

TNZ061-075-076-078-094-096-097-272100-
SOUTH MIDDLE TENNESSEE

CITY           SKY/WX    TMP DP  RH WIND       PRES   REMARKS
FAYETTEVILLE   SUNNY     91  68  46 W12       29.98F HX  95
TULLAHOMA      MOSUNNY   90  68  48 W7        30.00F HX  93
WINCHESTER     MOSUNNY   91  68  46 W9        29.98F HX  95
MCMINNVILLE    SUNNY     90  75  62 W10       29.98F HX 100
COLUMBIA       MOSUNNY   91  72  52 VRB7G15   29.94F HX  98
SHELBYVILLE    SUNNY     90  72  55 W8        29.97F HX  96
$$

TNZ017-018-042-046-047-272100-
NORTHEAST TENNESSEE

CITY           SKY/WX    TMP DP  RH WIND       PRES   REMARKS
TRI CITIES     CLOUDY    80  71  74 W3        30.03F THUNDER
ELIZABETHTON   CLOUDY    79  72  78 CALM      30.03F
$$

TNZ012-013-036-069-073-074-272100-
CENTRAL EAST TENNESSEE

CITY           SKY/WX    TMP DP  RH WIND       PRES   REMARKS
KNOXVILLE      CLOUDY    85  72  65 W18G24    30.01  HX  91
OAK RIDGE      CLOUDY    73  70  90 CALM      30.03F
DOWNTOWN KNOXV SUNNY     86  75  70 W8        29.99S HX  95
GATLINBURG     SUNNY     86  72  62 W7        29.99S HX  92
MORRISTOWN     SUNNY     82  73  74 N5        30.00F
JACKSBORO      SUNNY     82  73  74 CALM      30.03F
$$

TNZ083-085-099-272100-
SOUTHEAST TENNESSEE

CITY           SKY/WX    TMP DP  RH WIND       PRES   REMARKS
CHATTANOOGA    CLOUDY    83  75  77 VRB3      29.99F HX  90
DAYTON         CLEAR     84  73  70 S8        29.97F HX  91
$$

SKY/WX REPORTED AS FAIR MEANS FEW OR NO CLOUDS BELOW
12 THOUSAND FEET.





USA.gov is the U.S. government's official web portal to all federal, state and local government web resources and services.